EHI
28 29 30 30 35 43 45 40 35 34 31 24 18 13 10 9 9 10 11 12 12 12 11 10 11 10 11 11 11 10 8 6 4 4 6 5 4 5 7 8 8 8 8
32 33 34 33 36 43 46 45 42 39 35 29 23 17 12 9 8 10 12 13 13 13 12 11 11 12 11 11 11 12 10 6 5 4 5 5 4 4 5 8 9 9 8
38 38 38 39 41 44 45 47 50 48 43 38 30 22 17 11 7 11 14 15 15 15 13 13 13 13 12 11 12 12 12 9 6 6 5 5 4 3 5 8 10 9 8
42 41 41 41 42 42 42 46 51 53 51 47 39 29 21 14 9 11 16 18 18 16 14 13 13 13 12 12 12 12 13 11 9 7 6 5 4 4 5 7 8 8 8
43 43 42 40 38 37 39 45 52 56 56 54 48 37 26 18 13 12 17 20 19 16 14 13 13 12 12 12 13 14 14 13 12 9 7 6 5 5 4 5 6 6 7
41 42 41 39 38 37 39 46 55 58 56 53 50 42 30 23 20 19 20 21 19 17 15 15 15 13 13 14 15 17 17 16 16 14 10 8 8 7 5 3 3 3 4
39 40 40 40 41 40 41 50 58 59 54 51 49 43 34 28 25 23 22 21 19 17 17 17 18 17 15 16 19 21 22 21 20 17 13 11 9 7 5 3 2 1 1
39 40 40 40 40 39 42 51 60 60 55 52 50 45 37 31 26 23 20 19 18 16 17 20 21 21 19 19 22 22 23 23 21 17 16 12 8 6 5 4 2 1 0
38 40 39 38 38 38 42 52 60 61 57 54 51 46 40 33 30 26 21 18 16 16 19 23 24 25 25 24 23 21 20 22 20 17 16 13 8 5 6 6 4 1 0
34 37 37 37 39 40 44 51 57 59 57 53 49 45 40 36 34 31 25 21 19 21 25 27 26 27 27 26 24 20 18 19 19 16 15 13 9 7 8 9 7 4 2
27 32 36 37 40 42 44 49 53 54 52 50 47 42 39 37 36 33 29 27 25 26 29 29 27 26 26 26 25 21 19 19 18 15 14 14 12 10 12 12 10 6 4
24 29 35 38 39 40 43 47 49 49 47 46 45 42 38 37 36 35 34 34 31 28 28 28 26 26 26 27 26 23 21 19 17 15 15 16 15 14 14 13 10 7 5
26 30 37 41 40 39 40 43 45 45 44 44 44 42 38 35 34 35 38 38 34 29 27 26 26 27 28 28 26 24 22 20 18 18 19 19 18 16 15 12 10 8 6
29 34 39 42 42 41 40 39 39 40 41 41 41 39 36 33 32 33 36 36 33 29 26 25 25 27 28 26 25 25 24 22 21 20 21 19 17 15 13 11 10 8 7
30 34 38 42 44 44 42 38 37 38 39 38 37 36 34 32 31 32 32 31 29 26 24 23 23 23 23 21 21 22 22 23 23 22 21 18 13 10 8 7 6 6 5
27 31 37 42 44 45 43 40 38 39 39 37 36 35 34 32 31 31 29 28 27 24 22 20 19 17 16 15 15 17 19 21 23 24 22 16 9 5 4 3 2 2 2
26 30 35 39 41 40 40 38 38 39 40 37 36 35 34 33 32 31 29 27 26 24 21 19 17 15 12 10 9 10 14 17 20 22 22 15 8 4 4 3 2 2 3
28 30 32 34 35 34 33 35 36 37 37 36 36 36 34 33 33 33 31 28 26 25 23 21 19 16 12 8 5 5 8 12 15 18 18 14 9 6 4 3 3 4 6
31 29 29 31 33 33 32 33 33 33 32 33 36 36 34 32 32 33 32 30 27 26 23 21 19 17 13 7 3 3 5 8 9 11 12 10 7 4 2 1 1 3 5
30 28 27 31 36 37 36 34 32 30 29 31 33 34 33 32 31 31 32 31 28 26 22 19 19 17 13 8 3 2 5 7 7 7 6 4 2 1 0 0 0 1 2
30 29 29 34 38 40 39 38 35 32 31 32 32 31 32 30 29 29 30 29 28 26 23 21 19 17 13 7 2 1 3 5 6 6 3 1 0 0 0 0 0 0 1
29 30 32 36 38 40 42 41 37 35 34 34 32 31 30 27 26 26 27 26 26 25 24 22 19 17 13 7 2 0 1 2 4 4 2 1 0 0 0 0 0 0 0
26 27 31 34 35 38 40 40 37 35 34 33 33 32 30 27 25 25 24 23 23 22 21 20 18 17 14 8 3 1 0 1 2 2 1 0 0 0 0 0 0 0 0
24 25 28 31 33 35 36 36 36 35 33 33 33 33 31 28 26 24 21 20 20 20 18 17 17 16 13 8 4 2 0 0 0 1 1 1 0 0 0 0 0 0 0
25 27 29 31 32 33 34 35 35 35 33 32 32 30 28 26 25 22 18 15 15 15 15 15 14 13 10 6 3 1 0 0 0 1 2 1 0 0 0 0 0 0 0
26 28 31 31 31 31 34 35 34 34 33 31 30 27 24 24 23 20 15 10 9 9 9 11 11 10 7 4 1 0 0 0 0 1 2 1 0 0 0 0 0 0 0
Wind_Speed
11 10 9 9 9 8 6 5 5 4 3 2 2 2 1 1 1 2 2 1 1 1 1 1 1 1 1 1 0 0 1 1 0 0 1 1 1 2 2 2 1 2 2
11 10 10 9 9 8 7 6 5 5 4 3 2 1 1 1 1 1 2 1 1 1 1 0 1 1 1 1 1 0 0 1 1 0 0 1 0 0 2 2 2 2 2
11 11 10 9 9 8 8 6 5 5 4 4 3 2 1 1 1 1 1 1 1 1 0 0 1 0 1 1 1 1 1 1 1 1 1 0 0 1 0 2 2 2 1
12 12 11 10 9 9 9 7 6 5 4 4 3 3 3 2 1 1 1 1 1 1 0 0 0 1 0 0 2 1 1 1 1 1 1 1 1 1 0 0 1 2 2
12 12 11 10 9 9 9 8 7 6 5 5 4 3 2 2 1 1 2 2 1 1 1 0 0 1 0 1 2 0 1 1 1 1 1 1 1 2 1 1 1 1 1
12 12 11 9 8 8 8 8 8 7 6 5 4 3 2 1 1 1 1 1 1 1 1 1 0 1 1 1 2 1 2 1 2 2 2 1 1 1 1 1 1 1 1
11 11 11 10 9 8 8 8 8 8 7 6 5 4 3 3 2 2 2 2 1 1 1 1 1 1 1 2 1 2 2 2 1 2 2 2 1 1 1 1 1 1 1
10 10 9 8 7 8 8 7 8 8 7 6 4 3 3 3 2 2 2 2 1 1 2 2 1 1 1 1 1 2 2 1 2 2 2 2 2 2 1 1 1 1 1
10 10 9 9 8 7 7 8 8 7 7 6 5 4 3 2 2 2 2 2 1 1 1 1 1 1 1 1 1 1 1 1 1 2 1 2 2 2 2 1 1 1 1
9 9 8 8 8 8 7 7 7 7 6 6 5 5 4 3 2 2 2 1 1 1 0 1 1 1 1 1 1 2 1 1 1 1 1 2 2 2 2 2 2 1 1
8 8 8 7 7 7 7 7 7 7 6 5 5 4 4 4 3 2 2 1 1 1 1 1 1 2 2 1 2 3 2 2 2 2 1 2 2 2 2 1 1 1 1
6 7 7 6 6 6 6 6 6 6 5 4 4 4 4 4 4 3 2 2 1 1 1 1 2 2 2 2 2 3 3 2 2 2 2 2 2 2 2 1 2 1 1
7 7 6 5 5 4 4 5 5 5 5 5 4 3 3 4 3 2 2 2 2 2 2 2 2 2 2 2 2 2 2 2 2 2 2 2 2 2 2 2 2 2 2
6 6 6 5 4 4 3 4 4 4 4 4 4 3 2 2 2 1 1 2 2 2 3 3 3 2 2 2 2 2 2 2 2 2 2 2 2 2 2 3 2 2 2
6 5 4 5 4 4 4 3 3 3 4 4 4 3 3 2 1 2 2 2 2 3 2 2 3 3 3 2 2 2 3 2 2 2 2 2 2 2 2 3 2 2 2
5 5 5 5 5 4 4 4 3 3 3 3 3 3 2 2 2 2 2 2 2 2 2 3 3 3 3 1 1 1 3 2 3 3 2 2 2 2 3 3 3 4 4
4 4 4 4 4 5 4 4 3 3 3 3 3 2 2 2 2 3 2 2 2 2 3 3 3 3 3 2 1 2 3 3 3 3 2 3 3 2 2 3 5 5 6
2 3 3 3 3 4 4 4 4 3 3 3 3 2 2 2 2 2 2 3 2 3 3 3 3 3 3 4 2 2 3 4 4 3 3 2 2 3 2 3 3 3 4
2 1 2 3 3 3 3 4 4 3 3 3 3 3 3 3 3 3 3 3 3 3 4 3 4 4 3 4 4 3 3 3 4 4 3 2 2 3 3 3 3 4 4
3 2 1 3 3 3 3 3 3 4 3 3 2 2 2 3 3 3 3 3 3 4 4 4 4 4 3 5 6 5 3 3 3 2 2 3 3 3 3 3 3 4 4
3 2 1 1 2 3 3 3 2 3 3 2 2 2 2 3 3 3 3 3 4 4 4 4 4 4 4 5 7 7 3 3 3 2 2 1 1 3 3 3 3 4 4
3 2 1 1 1 2 2 2 2 2 2 2 2 3 3 4 4 3 3 4 4 5 5 4 5 4 3 4 6 8 7 5 3 3 2 2 2 3 5 4 4 5 4
1 1 1 1 1 1 2 2 1 1 1 2 3 3 3 3 3 4 4 4 4 5 4 4 4 3 2 3 5 6 7 6 3 3 3 4 4 4 4 6 7 5 3
0 1 1 1 0 1 1 2 1 1 2 2 3 3 3 4 4 3 4 4 4 4 3 3 3 2 2 2 2 2 2 2 2 2 3 4 5 5 5 5 4 4 3
1 1 1 1 1 1 2 2 1 2 3 3 4 4 4 4 3 2 2 3 2 2 3 3 2 2 2 2 3 2 1 1 1 1 3 3 2 3 3 3 3 3 3
1 2 2 2 2 2 2 1 2 2 3 4 4 4 4 3 3 3 2 1 2 3 3 3 3 2 3 4 3 3 3 4 3 2 3 3 3 3 3 3 3 2 2
Wind_Direction
159 153 156 151 145 143 146 152 158 155 158 159 177 173 168 153 138 140 121 150 176 188 221 282 150 139 110 102 103 48 265 253 148 347 325 257 175 147 145 140 140 139 141
157 154 159 157 158 157 159 159 165 164 170 169 172 177 164 173 145 135 131 169 186 228 204 224 245 142 136 152 200 181 278 280 175 189 302 310 79 282 166 150 155 143 135
163 163 167 165 163 163 163 166 166 164 173 169 170 164 156 184 162 162 152 182 184 197 289 141 307 311 165 163 197 245 225 260 243 189 174 167 166 296 155 155 137 138 145
165 165 166 169 170 167 165 161 161 159 163 169 171 172 171 182 181 171 160 180 192 195 166 125 353 324 355 156 232 197 263 257 276 235 223 196 168 208 227 256 151 158 161
163 162 165 170 172 167 164 162 159 162 163 171 173 175 189 195 184 166 164 176 184 182 162 155 183 266 290 257 269 292 262 277 288 290 277 224 218 227 212 218 193 191 168
160 161 164 164 168 164 162 161 158 159 162 169 173 182 200 199 167 155 167 201 188 185 194 186 191 232 247 256 269 270 246 271 301 306 304 292 277 249 223 224 236 211 191
161 160 162 162 161 163 163 164 162 163 169 173 178 188 197 189 185 204 204 222 214 180 180 208 193 240 242 238 248 242 243 248 261 279 288 296 295 299 262 215 251 298 297
157 152 149 149 157 166 164 161 160 163 168 171 176 182 181 200 200 205 222 223 233 188 180 188 193 239 259 255 229 262 248 239 254 263 271 284 288 294 282 234 202 243 286
151 146 152 153 157 162 159 158 154 160 170 173 172 175 183 208 217 210 228 234 239 239 144 153 189 232 255 284 269 263 278 278 270 277 269 271 276 277 287 278 230 213 246
141 143 149 154 158 159 153 150 154 160 166 171 182 182 184 196 202 222 223 242 229 276 168 200 208 228 247 274 276 268 262 260 270 278 280 277 286 287 270 275 283 263 228
144 143 145 148 150 149 150 152 152 155 167 177 177 180 183 196 204 211 213 231 240 215 187 204 225 219 222 238 256 276 278 263 271 276 268 271 280 295 298 286 284 271 214
130 131 134 139 144 149 150 150 154 162 170 166 169 189 186 191 201 205 203 206 233 236 206 211 237 243 233 236 242 261 281 269 267 270 271 266 274 277 288 287 275 269 238
129 131 131 128 131 135 143 148 155 162 162 160 167 175 187 197 206 210 209 204 219 240 238 227 228 241 247 246 250 250 267 266 270 273 266 260 264 266 274 275 266 265 260
125 128 128 121 119 121 123 138 160 159 158 157 163 161 182 202 208 212 214 217 222 236 241 240 239 234 238 243 248 254 253 255 265 271 267 261 253 250 252 257 253 252 262
124 119 133 130 131 132 135 140 152 156 163 161 168 174 184 195 212 216 214 214 229 236 239 245 248 247 233 236 236 255 257 264 265 267 268 264 257 249 249 261 257 258 257
131 144 148 144 150 151 146 148 155 156 154 161 175 168 178 193 211 230 222 206 217 236 240 239 245 254 258 235 222 254 274 264 260 264 269 267 236 224 234 268 265 254 246
140 153 148 149 153 157 149 152 153 152 157 168 172 168 191 211 224 242 226 216 221 220 228 235 237 235 232 206 218 242 268 266 261 261 262 269 265 230 245 251 253 254 251
99 130 154 155 155 159 157 153 156 155 168 176 174 179 201 215 220 238 233 225 227 232 236 235 232 235 221 206 216 229 252 260 262 259 244 244 260 264 265 262 257 256 252
89 124 159 159 154 157 154 160 171 174 187 196 195 204 215 229 228 233 235 227 231 235 236 234 230 233 216 207 206 209 254 255 263 261 248 229 238 255 260 253 257 266 270
54 49 107 156 148 150 159 178 195 191 202 209 215 216 215 231 240 237 249 243 238 239 245 244 236 237 225 208 206 203 238 256 270 268 242 231 240 246 251 253 260 267 274
55 41 51 109 125 137 155 188 204 208 216 212 215 218 222 231 234 231 237 241 238 244 243 247 243 238 226 205 204 200 226 253 265 271 268 258 232 240 245 247 251 256 275
59 31 24 69 113 150 175 206 210 207 203 209 220 226 232 247 244 235 238 234 231 238 240 241 243 235 205 200 199 199 216 243 262 266 273 283 273 260 254 251 250 261 270
43 348 348 25 88 162 192 219 217 203 208 220 231 233 237 244 239 229 240 235 228 236 237 231 231 223 187 179 190 202 221 233 243 265 281 287 275 271 257 248 247 248 247
66 307 296 289 248 242 250 229 207 196 215 237 242 237 232 233 236 231 234 236 233 235 239 239 240 226 183 171 166 204 208 209 227 286 299 274 259 261 259 256 243 232 232
295 297 289 278 261 253 258 251 225 225 235 243 245 244 240 235 227 229 253 256 252 237 240 245 242 233 219 183 183 208 227 204 201 286 279 263 251 247 242 237 237 237 229
299 304 291 269 256 247 250 247 234 242 245 248 252 251 243 234 227 221 231 301 242 212 210 212 207 216 197 184 187 198 211 210 208 234 258 261 252 252 255 251 245 242 241